Weather History for Corpus Christi, TX

Change the Weather History Date:

Thursday, November 25, 2010

  Actual Average Record
Temperature  
Mean Temperature 68 °F 63 °F  
Max Temperature 86 °F 73 °F 91 °F (1915)
Min Temperature 49 °F 53 °F 36 °F (1993)
Degree Days  
Heating Degree Days 0 5  
Month to date heating degree days 56 65  
Since 1 July heating degree days 64 75  
Cooling Degree Days 3 3  
Month to date cooling degree days 99 111  
Year to date cooling degree days 3458 3462  
Growing Degree Days 18 (Base 50)    
Moisture  
Dew Point 67 °F    
Average Humidity 77    
Maximum Humidity 93    
Minimum Humidity 61    
Precipitation  
Precipitation T in 0.05 in 1.91 in (1980)
Month to date precipitation 0.96 1.73  
Year to date precipitation 43.26 29.69  
Snow  
Snow 0.00 in - - ()
Month to date snowfall 0.0  
Since 1 July snowfall 0.0  
Since 1 September snowfall 0.0  
Snow Depth 0.00 in    
Sea Level Pressure  
Sea Level Pressure 29.75 in    
Wind  
Wind Speed 22 mph (SSE)    
Max Wind Speed 33 mph    
Max Gust Speed 40 mph    
Visibility 10 miles    
Events Rain    
T = Trace of Precipitation, MM = Missing Value Source: NWS Daily Summary

Daily Weather History Graph

Daily Weather History Graph

Search for Another Location

Airport:

Trip Planner

Search our weather history database for the weather conditions in past years. The results will help you decide how hot, cold, wet, or windy it might be!

Date:

Astronomy

Nov. 25, 2010 Rise Set
Actual Time 6:59 AM CST 5:34 PM CST
Civil Twilight 6:33 AM CST 6:00 PM CST
Nautical Twilight 6:05 AM CST 6:28 PM CST
Astronomical Twilight 5:36 AM CST 6:57 PM CST
Moon 9:31 PM CST (11/25) 10:29 AM CST (11/25)
Length of Visible Light 11h 26m
Length of Day
10h 35m
Waning Gibbous, 82% of the Moon is Illuminated
Nov 25
Waning Gibbous
Nov 28
Last Quarter
Dec 5
New
Dec 13
First Quarter
Dec 21
Full

Hourly Weather History & Observations

Time (CST) Temp. Heat Index Dew Point Humidity Pressure Visibility Wind Dir Wind Speed Gust Speed Precip Events Conditions
12:13 AM 73.4 °F - 69.8 °F 88% 29.75 in 10.0 mi South 21.9 mph 29.9 mph N/A   Scattered Clouds
12:47 AM 73.4 °F - 71.6 °F 94% 29.74 in 10.0 mi South 23.0 mph - N/A   Mostly Cloudy
12:51 AM 73.9 °F - 71.1 °F 91% 29.74 in 10.0 mi South 25.3 mph 33.4 mph N/A   Mostly Cloudy
1:51 AM 73.9 °F - 71.1 °F 91% 29.73 in 10.0 mi South 21.9 mph 28.8 mph N/A   Overcast
2:51 AM 73.9 °F - 71.1 °F 91% 29.72 in 10.0 mi South 23.0 mph 31.1 mph N/A   Mostly Cloudy
3:51 AM 73.9 °F - 70.0 °F 87% 29.71 in 10.0 mi South 23.0 mph 26.5 mph N/A   Mostly Cloudy
4:51 AM 73.9 °F - 70.0 °F 87% 29.71 in 10.0 mi South 23.0 mph 28.8 mph N/A   Mostly Cloudy
4:57 AM 73.4 °F - 69.8 °F 88% 29.71 in 10.0 mi South 21.9 mph 31.1 mph N/A   Mostly Cloudy
5:22 AM 73.4 °F - 69.8 °F 88% 29.71 in 10.0 mi South 23.0 mph - N/A   Mostly Cloudy
5:51 AM 73.9 °F - 69.1 °F 85% 29.71 in 10.0 mi South 21.9 mph 28.8 mph N/A   Mostly Cloudy
6:26 AM 73.4 °F - 69.8 °F 88% 29.71 in 9.0 mi South 23.0 mph 28.8 mph N/A   Scattered Clouds
6:40 AM 73.4 °F - 69.8 °F 88% 29.71 in 9.0 mi SSE 20.7 mph - N/A   Mostly Cloudy
6:51 AM 73.0 °F - 70.0 °F 90% 29.71 in 7.0 mi SSE 19.6 mph 27.6 mph N/A   Mostly Cloudy
7:51 AM 73.9 °F - 70.0 °F 87% 29.74 in 7.0 mi SSE 21.9 mph 32.2 mph N/A   Mostly Cloudy
8:51 AM 77.0 °F - 70.0 °F 79% 29.76 in 10.0 mi South 23.0 mph 32.2 mph N/A   Mostly Cloudy
9:28 AM 78.8 °F - 69.8 °F 74% 29.76 in 10.0 mi South 26.5 mph 35.7 mph N/A   Mostly Cloudy
9:51 AM 78.1 °F - 69.1 °F 74% 29.76 in 10.0 mi South 29.9 mph 35.7 mph N/A   Mostly Cloudy
10:51 AM 81.0 °F 84.1 °F 69.1 °F 67% 29.77 in 10.0 mi South 25.3 mph 35.7 mph N/A   Mostly Cloudy
11:51 AM 82.9 °F 87.0 °F 70.0 °F 65% 29.73 in 10.0 mi South 25.3 mph - N/A   Mostly Cloudy
12:51 PM 84.0 °F 88.4 °F 70.0 °F 63% 29.70 in 10.0 mi SSE 19.6 mph 28.8 mph N/A   Mostly Cloudy
1:51 PM 84.9 °F 89.4 °F 70.0 °F 61% 29.67 in 10.0 mi SSE 25.3 mph 32.2 mph N/A   Mostly Cloudy
2:51 PM 84.0 °F 88.4 °F 70.0 °F 63% 29.66 in 10.0 mi SSE 24.2 mph 31.1 mph N/A   Scattered Clouds
3:51 PM 82.0 °F 85.9 °F 70.0 °F 67% 29.67 in 10.0 mi SSE 25.3 mph 32.2 mph N/A   Partly Cloudy
4:51 PM 79.0 °F - 70.0 °F 74% 29.68 in 10.0 mi SSE 24.2 mph 33.4 mph N/A   Clear
5:51 PM 75.9 °F - 70.0 °F 82% 29.70 in 10.0 mi SSE 18.4 mph - N/A   Clear
6:51 PM 75.0 °F - 70.0 °F 84% 29.74 in 10.0 mi SSE 17.3 mph - N/A   Clear
7:51 PM 75.0 °F - 71.1 °F 87% 29.77 in 10.0 mi SSE 16.1 mph - N/A   Partly Cloudy
8:51 PM 75.0 °F - 71.1 °F 87% 29.80 in 9.0 mi SSE 11.5 mph - N/A   Scattered Clouds
9:14 PM 66.2 °F - 60.8 °F 83% 29.84 in 9.0 mi NNE 21.9 mph 33.4 mph N/A   Squalls
9:19 PM 62.6 °F - 55.4 °F 77% 29.85 in 10.0 mi North 23.0 mph 33.4 mph N/A   Overcast
9:30 PM 59.0 °F - 51.8 °F 77% 29.87 in 10.0 mi North 28.8 mph 36.8 mph N/A   Overcast
9:51 PM 55.9 °F - 50.0 °F 80% 29.89 in 10.0 mi NNE 24.2 mph - 0.00 in Rain Light Rain
10:51 PM 52.0 °F - 46.0 °F 80% 29.94 in 10.0 mi NNE 21.9 mph 31.1 mph 0.00 in   Light Drizzle
11:51 PM 48.9 °F - 46.0 °F 90% 29.97 in 10.0 mi North 25.3 mph 32.2 mph 0.00 in Rain Light Rain